www.pogodaiklimat.ru
ПОГОДА в Монтевидео
Время
(UTC), дата
17:35 26.09
17:55 26.09
18:15 26.09
18:35 26.09
18:55 26.09
19:15 26.09
19:35 26.09
19:55 26.09
20:15 26.09
20:35 26.09
20:55 26.09
21:15 26.09
21:35 26.09
21:55 26.09
22:15 26.09
22:35 26.09
22:55 26.09
23:15 26.09
23:35 26.09
23:55 26.09
00:15 26.09
00:35 26.09
00:55 26.09
01:15 26.09
01:35 26.09
01:55 26.09
02:15 26.09
02:35 26.09
02:55 26.09
03:15 26.09
03:35 26.09
03:55 26.09
04:15 26.09
04:35 26.09
04:55 26.09
05:15 27.09
05:35 27.09
05:55 27.09
06:15 27.09
06:35 27.09
06:55 27.09
07:15 27.09
07:35 27.09
07:55 27.09
08:15 27.09
08:35 27.09
08:55 27.09
09:15 27.09
Ветер
(напр.,м/с)
Видим. Явления Облачность Т
(С)
Тd
(С)
f
(%)
Тe
(С)
Тes
(С)
Комфортность P
(гПа)
Po
(гПа)
Тmin
(С)
Tmax
(С)
R
(мм)
R24
(мм)
S
(см)
0 26 км ясно +22.0 +12.0 53 +24 +24 комфорт 961.5
0 26 км ясно +23.0 +12.0 50 +26 +26 жарко 962.4
З 1 26 км ясно +24.0 +12.0 47 +26 +26 жарко 962.4
В 1 26 км ясно +24.0 +12.0 47 +26 +26 жарко 962.1
В 1 26 км ясно +24.0 +11.0 44 +25 +25 комфорт 961.5
В 1 26 км ясно +24.0 +11.0 44 +25 +25 комфорт 961.5
В 2 26 км ясно +24.0 +11.0 44 +25 +25 комфорт 961.5
ЮВ 2
{3}
26 км ясно +24.0 +10.0 41 +25 +25 комфорт 961.1
ЮВ 2
{3}
26 км ясно +24.0 +9.0 38 +25 +25 комфорт 961.5
В 1 26 км ясно +24.0 +9.0 38 +25 +25 комфорт 961.5
СВ 2 26 км 8/8 1500 м +23.0 +10.0 44 +25 +25 комфорт 961.8
В 2 26 км 8/5 1800 м
[средняя]
+23.0 +10.0 44 +25 +25 комфорт 961.5
СВ 2 26 км 5/5 1800 м
[средняя]
+23.0 +9.0 41 +24 +24 комфорт 962.4
СВ 2 26 км 8/8 1800 м +22.0 +9.0 43 +23 +23 комфорт 962.8
СВ 1 26 км 10/10 1800 м +22.0 +9.0 43 +23 +23 комфорт 963.1
СВ 3 26 км 10/10 1800 м +21.0 +12.0 56 +23 +23 комфорт 963.7
С 2 26 км 10/10 1800 м +20.0 +12.0 60 +22 +22 комфорт 964.1
СВ 3
{3}
26 км 10/10 1800 м +19.0 +12.0 64 +19 +19 964.1
СВ 2 26 км 8/0 2100 м
[средняя]
+19.0 +11.0 60 +20 +20 964.1
С 2 26 км ясно +18.0 +11.0 64 +18 +18 965.0
С 2 26 км ясно +18.0 +8.0 52 +18 +18 965.4
С 1 26 км ясно +17.0 +8.0 55 +17 +17 966.0
С 1 26 км ясно +17.0 +8.0 55 +17 +17 965.7
0 26 км 5/5 1800 м +16.0 +8.0 59 +16 +16 965.7
0 26 км ясно +16.0 +8.0 59 +16 +16 965.4
СЗ 1 26 км 5/0 3000 м
[средняя]
+16.0 +8.0 59 +16 +16 966.7
СЗ 1 26 км 10/0 2250 м
[средняя]
+16.0 +9.0 63 +16 +16 967.0
СЗ 1 26 км 10/0 2250 м
[средняя]
+16.0 +9.0 63 +16 +16 967.0
СЗ 1 26 км 10/0 3000 м
[средняя]
+15.0 +9.0 67 +15 +15 967.0
0 26 км 5/0 3300 м
[средняя]
+14.0 +9.0 72 +14 +14 967.0
З 1 26 км 5/0 3000 м
[средняя]
+13.0 +9.0 77 +12 +12 967.0
З 1 26 км 5/0 3000 м
[средняя]
+14.0 +9.0 72 +14 +14 966.7
З 1 26 км 5/0 3300 м
[средняя]
+14.0 +8.0 67 +13 +13 966.7
З 1 26 км 5/0 3300 м
[средняя]
+14.0 +8.0 67 +13 +13 966.7
З 2 26 км 5/0 3300 м
[средняя]
+14.0 +8.0 67 +13 +13 966.7
З 2 26 км 5/0 3300 м
[средняя]
+14.0 +8.0 67 +13 +13 966.7
З 1 26 км ясно +14.0 +7.0 63 +13 +13 966.7
З 1 26 км ясно +14.0 +7.0 63 +13 +13 967.0
СЗ 2 26 км ясно +14.0 +6.0 59 +12 +14 966.7
СЗ 3
{4}
26 км ясно +14.0 +5.0 55 +12 +13 966.7
СЗ 2
{4}
26 км ясно +14.0 +4.0 51 +12 +14 967.0
СЗ 2
{4}
26 км ясно +14.0 +4.0 51 +12 +16 967.0
СЗ 2 26 км ясно +14.0 +4.0 51 +13 +17 967.3
СЗ 1 26 км ясно +13.0 +4.0 54 +12 +17 967.3
З 1 26 км ясно +13.0 +4.0 54 +12 +22 967.6
З 1 26 км ясно +13.0 +4.0 54 +12 +25 опасность
простуды
968.0
З 1 26 км ясно +12.0 +4.0 58 +11 +21 опасность
простуды
968.0
СЗ 1 26 км ясно +12.0 +4.0 58 +11 +25 опасность
простуды
968.3
Местоположение метеостанции Montevideo-Chippewa County Airport: широта 44.9667 долгота -95.7167 высота над уровнем моря 315 м.
В архиве по умолчанию представлена погода в Монтевидео за последние 1-2 суток. Обновление информации о фактической погоде в базе происходит ежечасно! Архивные данные за месяц целиком и за предыдущие месяцы Вы можете получить, выбрав интересующий диапазон дат из раскрывающегося списка и нажав кнопку "Ввод!".
Внимание! Архив погоды МЕТАР в базе сайта по станциям, не включенным в климатический монитор, хранится не более 60 дней. Нет смысла пытаться выбрать более раннюю дату.
*Определитесь, кто Вы:
Внимание! Время в таблицах - всемирное. Для получения местного времени необходимо прибавить поправку, которая равна ч.
Смотрите также архив погоды в соседних городах и на ближайших метеорологических станциях:
Партнеры нашего сайта:      
Пояснения к столбцам:
  • Ветер - указаны скорость ветра в м/с - средняя за 10 мин, порывы в срок и между сроками (в фигурных скобках) и направление, откуда дует ветер: С - северный,
  • СВ - северо-восточный, В - восточный, ЮВ - юго-восточный, Ю - южный, ЮЗ - юго-западный, З - западный, СЗ - северо-западный.
  • Видимость - горизонтальная дальность видимости в метрах или километрах. При видимости от 1 до 10 км при отсутствии осадков обычно наблюдается дымка, при ухудшении видимости до 1 км и менее - туман. В сухую погоду видимость может ухудшаться дымом, пылью или мглою.
  • Явления - указаны атмосферные явления, наблюдавшиеся в срок или в последний час перед сроком; фигурными скобками обозначены явления, наблюдавшиеся между сроками (за 1-3 часа до срока); квадратными скобками обозначены град или гололедные отложения с указанием их диаметра в мм.
  • Облачность - указаны через наклонную черту общая и нижняя облачность в баллах и высота нижней границы облаков в метрах; квадратными скобками обозначены формы облаков: Ci - перистые, Cs - перисто-слоистые, Cc - перисто-кучевые, Ac - высококучевые, As - высокослоистые, Sc - слоисто-кучевые, Ns - слоисто-дождевые, Cu - кучевые, Cb - кучево-дождевые. Подробнее классификацию облаков см. в Атласе облаков (PDF).
  • T - Температура воздуха - температура, измеренная на высоте 2 м над землей.
  • Td - Температура точки росы - температура, при понижении до которой содержащийся в воздухе водяной пар достигнет насыщения.
  • f - Относительная влажность воздуха - влажноcть воздуха, измеренная на высоте 2 м над землей.
  • Te - Эффективная температура - температура, которую ощущает одетый по сезону человек в тени. Характеристика душности погоды. При расчете учитывается влияние влажности воздуха и скорости ветра на теплоощущения человека.
  • Tes - Эффективная температура на солнце - температура, которую ощущает человек, с поправкой на солнечный нагрев. Характеристика знойности погоды. Зависит от высоты солнца над горизонтом, облачности и скорости ветра. Ночью, в пасмурную погоду, а также при ветре 12 м/с и более поправка равна нулю.
  • P - Атмосферное давление - приведенное к уровню моря атмосферное давление.
  • Po - Атмосферное давление - измеренное на уровне метеостанции атмосферное давление.
  • Tmin - Минимальная температура - минимум температуры воздуха на высоте 2 м над землей.
  • Tmax - Максимальная температура - максимум температуры воздуха на высоте 2 м над землей.
  • R - Количество осадков - Количество выпавших осадков за период времени, мм. При наведении курсора мыши на число - период времени, за который выпало указанное количество осадков.
  • R24 - Количество осадков - Количество выпавших осадков за 24 часа, мм.
  • S - Снежный покров - Высота снежного покрова, см. При наведении курсора мыши на число - состояние снежного покрова и степень покрытия местности в баллах.